Location: Aulnoy
(48.8410°N, 3.0967°E)
Time: 22:53:14
(UTC+00:00)

Cosmos 2315 Rocket - Pass Details

Date: 09 February 2023
Orbit: 965 x 1002 km, 82.9° (Epoch: 01 April)

Event Time Altitude Azimuth Distance (km) Brightness Sun altitude
Rises 18:04:41 0° 161° (SSE) 3,700 6.9 -11.4°
Reaches altitude 10° 18:07:21 10° 154° (SSE) 2,760 6.2 -11.8°
Maximum altitude 18:13:08 39° 88° (E) 1,466 4.5 -12.8°
Drops below altitude 10° 18:18:58 10° 22° (NNE) 2,787 6.1 -13.7°
Sets 18:21:40 0° 15° (NNE) 3,741 6.8 -14.2°
